Simultaneous Nadir Overpasses (SNOs) Predictions

Prediction of SNOs between NOAA-20 and LANDSAT-8 Satellite Orbit:

Table of predicted SNOs for the next 14.0 days since TLE Epoch: 5/11/2024
Index Date (NOAA-20) Time (NOAA-20) Lat,Lon (NOAA-20) SZA (NOAA-20 ) Date (LANDSAT-8) Time (LANDSAT-8) Lat,Lon (LANDSAT-8) SZA (LANDSAT-8 ) Distance(km) Time Diff (sec)
1 05/11/2024 05:05:04 70.75, 99.14 52.69 05/11/2024 05:06:14 70.61, 100.31 52.52 45.72 70
2 05/11/2024 05:55:38 -70.23, -92.71 127.87 05/11/2024 05:55:49 -70.22, -92.63 127.88 3.17 11
3 05/11/2024 06:46:21 70.08, 74.83 51.97 05/11/2024 06:45:17 70.07, 74.79 51.96 2.29 64
4 05/13/2024 21:21:45 70.26,-144.29 51.52 05/13/2024 21:22:46 70.24,-144.35 51.49 2.99 61
5 05/13/2024 22:12:27 -70.16, 23.18 128.60 05/13/2024 22:12:15 -70.18, 23.20 128.58 2.54 12
6 05/13/2024 23:03:01 69.53,-168.57 50.75 05/13/2024 23:01:51 69.58,-169.99 50.83 55.43 70
7 05/16/2024 13:38:34 70.21, -28.43 50.84 05/16/2024 13:39:10 70.24, -28.46 50.86 3.11 36
8 05/16/2024 14:29:16 -70.11, 139.05 129.28 05/16/2024 14:28:40 -70.12, 139.01 129.26 2.33 36
9 05/19/2024 05:04:49 -70.80, -80.89 129.13 05/19/2024 05:05:59 -70.71, -79.52 129.26 51.22 70
10 05/19/2024 05:55:23 70.18, 87.40 50.22 05/19/2024 05:55:33 70.21, 87.40 50.25 3.34 10
11 05/19/2024 06:46:05 -70.08,-105.12 129.90 05/19/2024 06:45:03 -70.10,-105.13 129.87 2.63 62
12 05/21/2024 21:21:27 -70.27, 35.76 130.23 05/21/2024 21:22:27 -70.29, 35.77 130.22 2.41 60
13 05/21/2024 22:12:11 70.18,-156.79 49.67 05/21/2024 22:11:54 70.17,-156.76 49.67 1.57 17
14 05/21/2024 23:02:43 -69.54, 11.47 130.99 05/21/2024 23:01:33 -69.57, 10.04 130.93 55.60 70
15 05/24/2024 13:38:15 -70.22, 151.61 130.78 05/24/2024 13:38:48 -70.23, 151.59 130.78 0.79 33
16 05/24/2024 14:28:59 70.14, -40.94 49.13 05/24/2024 14:28:15 70.11, -40.93 49.11 2.96 44



Historial Predications of SNOs between NOAA-20 and LANDSAT-8
